Location: Earls Croome
(52.0667°N, 2.2000°W)
Time: 04:54:45
(UTC+00:00)

Cosmos 2082 Rocket - Pass Details

Date: 17 November 2019
Orbit: 833 x 853 km, 71.0° (Epoch: 12 December)

Event Time Altitude Azimuth Distance (km) Brightness Sun altitude
Exits shadow 06:07:18 17° 276° (W) 2,019 3.5 -12.8°
Maximum altitude 06:10:26 27° 321° (NW) 1,587 3.2 -12.3°
Drops below altitude 10° 06:15:15 10° 18° (NNE) 2,490 4.7 -11.6°
Sets 06:18:06 0° 31° (NNE) 3,425 5.6 -11.2°
